Weather History for Santiago, Dominican Republic

Change the Weather History Date:

Sunday, October 13, 2013

  Actual Average Record
Temperature  
Mean Temperature 80 °F -  
Max Temperature 91 °F 89 °F 91 °F (1999)
Min Temperature 68 °F 70 °F 37 °F (2006)
Cooling Degree Days 14    
Growing Degree Days 30 (Base 50)    
Moisture  
Dew Point 72 °F    
Average Humidity 78    
Maximum Humidity 100    
Minimum Humidity 40    
Precipitation  
Precipitation 0.00 in 0.15 in - ()
Sea Level Pressure  
Sea Level Pressure 29.90 in    
Wind  
Wind Speed 3 mph ()    
Max Wind Speed 16 mph    
Max Gust Speed -    
Visibility 6.2 miles    
Events Thunderstorm    
Averages and records for this station are not official NWS values.
T = Trace of Precipitation, MM = Missing Value Source: Averaged Metar Reports

Daily Weather History Graph

Daily Weather History Graph

Search for Another Location

Airport:

Trip Planner

Search our weather history database for the weather conditions in past years. The results will help you decide how hot, cold, wet, or windy it might be!

Date:

Astronomy

Oct. 13, 2013 Rise Set
Actual Time 6:36 AM AST 6:20 PM AST
Civil Twilight 6:14 AM AST 6:42 PM AST
Nautical Twilight 5:48 AM AST 7:08 PM AST
Astronomical Twilight 5:23 AM AST 7:33 PM AST
Moon 2:31 PM AST (10/13) 1:25 AM AST (10/13)
Length of Visible Light 12h 28m
Length of Day
11h 44m
Waxing Gibbous, 69% of the Moon is Illuminated
Oct 13
Waxing Gibbous
Oct 18
Full
Oct 26
Last Quarter
Nov 3
New
Nov 10
First Quarter

Hourly Weather History & Observations

Time (AST) Temp. Heat Index Dew Point Humidity Pressure Visibility Wind Dir Wind Speed Gust Speed Precip Events Conditions
12:00 AM 75.2 °F - 73.4 °F 94% 29.95 in 6.2 mi Calm Calm - N/A   Scattered Clouds
1:00 AM 75.2 °F - 73.4 °F 94% 29.92 in 6.2 mi Calm Calm - N/A   Scattered Clouds
2:00 AM 73 °F - 72 °F 95% 29.92 in 6 mi Calm Calm - -   Haze
2:00 AM 73.4 °F - 71.6 °F 94% 29.92 in 6.2 mi Calm Calm - N/A   Scattered Clouds
3:00 AM 73.4 °F - 71.6 °F 94% 29.89 in 6.2 mi Calm Calm - N/A   Partly Cloudy
4:00 AM 71.6 °F - 71.6 °F 100% 29.89 in 6.2 mi Calm Calm - N/A   Partly Cloudy
5:00 AM 71.6 °F - 71.6 °F 100% 29.89 in 6.2 mi Calm Calm - N/A   Partly Cloudy
6:00 AM 69.8 °F - 69.8 °F 100% 29.92 in 6.2 mi Calm Calm - N/A   Partly Cloudy
7:00 AM 69.8 °F - 69.8 °F 100% 29.92 in 6.2 mi Calm Calm - N/A   Mostly Cloudy
8:00 AM 73 °F - 71 °F 89% 29.95 in 6 mi Calm Calm - -   Haze
8:00 AM 73.4 °F - 69.8 °F 88% 29.95 in 6.2 mi Calm Calm - N/A   Mostly Cloudy
9:00 AM 77.0 °F - 73.4 °F 89% 29.95 in 6.2 mi Calm Calm - N/A   Mostly Cloudy
10:00 AM 80.6 °F 85.4 °F 73.4 °F 79% 29.95 in 6.2 mi SSE 4.6 mph - N/A   Mostly Cloudy
11:00 AM 85 °F - 74 °F 62% 29.94 in 6 mi SE 8.9 mph - -   Haze
12:00 PM 86.0 °F 91.8 °F 71.6 °F 62% 29.92 in 6.2 mi SE 9.2 mph - N/A   Mostly Cloudy
1:00 PM 89.6 °F 96.2 °F 71.6 °F 55% 29.89 in 6.2 mi SE 13.8 mph - N/A   Mostly Cloudy
2:00 PM 90 °F - 69 °F 40% 29.87 in 6 mi East 15.7 mph - -   Haze
2:00 PM 89.6 °F 94.7 °F 69.8 °F 52% 29.86 in 6.2 mi East 16.1 mph - N/A   Scattered Clouds
3:00 PM 91.4 °F 98.4 °F 71.6 °F 52% 29.83 in 6.2 mi ESE 15.0 mph - N/A   Scattered Clouds
4:00 PM 91.4 °F 98.4 °F 71.6 °F 52% 29.80 in 6.2 mi ESE 6.9 mph - N/A   Scattered Clouds
5:00 PM 90 °F - 72 °F 46% 29.82 in 6 mi SSE 11.2 mph - -   Haze
5:00 PM 89.6 °F 96.2 °F 71.6 °F 55% 29.80 in 6.2 mi SSE 11.5 mph - N/A   Scattered Clouds
6:00 PM 84.2 °F 90.9 °F 73.4 °F 70% 29.86 in 6.2 mi East 6.9 mph - N/A   Scattered Clouds
7:00 PM 80.6 °F 85.4 °F 73.4 °F 79% 29.89 in 6.2 mi ESE 11.5 mph - N/A   Mostly Cloudy
8:00 PM 80.6 °F 86.2 °F 75.2 °F 84% 29.89 in 6.2 mi SSE 8.1 mph - N/A Thunderstorm Thunderstorm
9:00 PM 78.8 °F - 75.2 °F 89% 29.92 in 6.2 mi SSE 5.8 mph - N/A   Scattered Clouds
10:00 PM 78.8 °F - 73.4 °F 83% 29.95 in 6.2 mi SSE 4.6 mph - N/A   Scattered Clouds
11:00 PM 77.0 °F - 75.2 °F 94% 29.95 in 6.2 mi Calm Calm - N/A Thunderstorm Thunderstorm